TimeCST,TemperatureF,Dew PointF,Humidity,Sea Level PressureIn,VisibilityMPH,Wind Direction,Wind SpeedMPH,Gust SpeedMPH,PrecipitationIn,Events,Conditions,WindDirDegrees,DateUTC
12:51 AM,28.9,19.9,69,30.17,10.0,NW,20.7,31.1,N/A,,Overcast,320,2012-12-26 06:51:00
1:12 AM,28.4,19.4,69,30.16,10.0,NNW,20.7,28.8,N/A,,Overcast,330,2012-12-26 07:12:00
1:51 AM,28.9,19.0,67,30.18,10.0,NNW,17.3,29.9,N/A,,Overcast,330,2012-12-26 07:51:00
2:51 AM,28.0,19.0,69,30.20,10.0,North,16.1,-,N/A,,Overcast,350,2012-12-26 08:51:00
3:51 AM,27.0,17.1,66,30.22,10.0,NW,12.7,-,N/A,,Overcast,310,2012-12-26 09:51:00
4:51 AM,26.1,17.1,69,30.22,10.0,NW,15.0,21.9,N/A,,Overcast,320,2012-12-26 10:51:00
5:51 AM,25.0,16.0,69,30.25,10.0,NW,18.4,24.2,N/A,,Overcast,320,2012-12-26 11:51:00
6:51 AM,24.8,15.8,69,30.25,10.0,NNW,13.8,23.0,N/A,,Scattered Clouds,330,2012-12-26 12:51:00
7:51 AM,24.1,15.1,69,30.29,10.0,NW,10.4,-,N/A,,Clear,320,2012-12-26 13:51:00
8:51 AM,26.1,16.0,66,30.30,10.0,NW,12.7,19.6,N/A,,Clear,310,2012-12-26 14:51:00
9:51 AM,28.4,17.6,64,30.32,10.0,NNW,9.2,-,N/A,,Clear,330,2012-12-26 15:51:00
10:23 AM,30.2,17.6,60,30.32,10.0,NW,11.5,-,N/A,,Mostly Cloudy,310,2012-12-26 16:23:00
10:49 AM,30.2,17.6,60,30.31,10.0,NNW,11.5,18.4,N/A,,Scattered Clouds,330,2012-12-26 16:49:00
10:51 AM,30.9,18.0,59,30.32,10.0,NNW,13.8,18.4,N/A,,Partly Cloudy,330,2012-12-26 16:51:00
11:51 AM,33.1,19.0,56,30.28,10.0,NNW,13.8,-,N/A,,Clear,340,2012-12-26 17:51:00
12:51 PM,35.1,19.9,54,30.23,10.0,North,15.0,-,N/A,,Clear,360,2012-12-26 18:51:00
1:51 PM,36.0,21.0,55,30.22,10.0,North,9.2,-,N/A,,Clear,350,2012-12-26 19:51:00
2:51 PM,37.4,21.2,52,30.20,10.0,NNW,6.9,-,N/A,,Clear,330,2012-12-26 20:51:00
3:51 PM,37.0,21.9,54,30.19,10.0,NNE,6.9,-,N/A,,Clear,20,2012-12-26 21:51:00
4:51 PM,37.0,23.0,57,30.17,10.0,NNE,6.9,-,N/A,,Clear,20,2012-12-26 22:51:00
5:51 PM,33.1,24.1,70,30.17,10.0,NE,5.8,-,N/A,,Clear,40,2012-12-26 23:51:00
6:51 PM,30.0,23.0,75,30.17,10.0,NE,5.8,-,N/A,,Clear,50,2012-12-27 00:51:00
7:51 PM,30.0,23.0,75,30.17,10.0,ENE,3.5,-,N/A,,Clear,60,2012-12-27 01:51:00
8:51 PM,27.0,23.0,85,30.17,10.0,NE,3.5,-,N/A,,Clear,40,2012-12-27 02:51:00
9:51 PM,26.1,21.9,84,30.17,8.0,Calm,Calm,-,N/A,,Clear,0,2012-12-27 03:51:00
10:51 PM,28.0,23.0,81,30.18,8.0,Calm,Calm,-,N/A,,Clear,0,2012-12-27 04:51:00
11:51 PM,28.0,21.9,78,30.16,8.0,Calm,Calm,-,N/A,,Clear,0,2012-12-27 05:51:00